Location: Ferchesar
(52.6477°N, 12.4298°E)
Time: 09:57:37
(UTC+01:00)

Transit 2A - Pass Details

Date: 12 December 2021
Orbit: 591 x 966 km, 66.7° (Epoch: 26 January)

Event Time Altitude Azimuth Distance (km) Brightness Sun altitude
Exits shadow 05:33:43 25° 334° (NNW) 1,855 7.6 -22.7°
Maximum altitude 05:37:21 52° 40° (NE) 1,184 7.1 -22.1°
Drops below altitude 10° 05:43:26 10° 116° (ESE) 2,640 9.8 -21.2°
Sets 05:45:59 0° 121° (ESE) 3,543 10.7 -20.8°
